Probability
0 0 0 0 0 0 0 0 0 0 0 0 0 0 0 0 0 0 0 0 0 0 0 0 0 0 0 0 0 0 0 0 0 0 0 0 0 0 0 0 0 0 0
0 0 0 0 0 0 0 0 0 0 0 0 0 0 0 0 0 0 0 0 0 0 0 0 0 0 0 0 0 0 0 0 0 0 0 0 0 0 0 0 0 0 0
0 0 0 0 0 0 0 0 0 0 0 0 0 0 0 0 0 0 0 0 0 0 0 0 0 0 0 0 0 0 0 0 0 0 0 0 0 0 0 0 0 0 0
0 0 0 0 0 0 0 0 0 0 0 0 0 0 0 0 0 0 0 0 0 0 0 0 0 0 0 0 0 0 0 0 0 0 0 0 0 0 0 0 0 0 0
0 0 0 0 0 0 0 0 0 0 0 0 0 0 0 0 0 0 0 0 0 0 0 0 0 0 0 0 0 0 0 0 0 0 0 0 0 0 0 0 0 0 0
0 0 0 0 0 0 0 0 0 0 0 0 0 0 0 0 0 0 0 0 0 0 0 0 0 0 0 0 0 0 0 0 0 0 0 0 0 0 0 0 0 0 0
0 0 0 0 0 0 0 0 0 0 0 0 0 0 0 0 0 0 0 0 0 0 0 0 0 0 0 0 0 0 0 0 0 0 0 0 0 0 0 0 0 0 0
0 0 0 0 0 0 0 0 0 0 0 0 0 0 0 0 0 0 0 0 0 0 0 0 0 0 0 0 0 0 0 0 0 0 0 0 0 0 0 0 0 0 0
0 0 0 0 0 0 0 0 0 0 0 0 0 0 0 0 0 0 0 0 0 0 0 0 0 0 0 0 0 0 0 0 0 0 0 0 0 0 0 0 0 0 0
0 0 0 0 0 0 0 0 0 0 0 0 0 0 0 0 0 0 0 0 0 0 0 0 0 0 0 0 0 0 0 0 0 0 0 0 0 0 0 0 0 0 0
0 0 0 0 0 0 0 0 0 0 0 0 0 0 0 0 0 0 0 0 0 0 0 0 0 0 0 0 0 0 0 0 0 0 0 0 0 0 0 0 0 0 0
0 0 0 0 0 0 0 0 0 0 0 0 0 0 0 0 0 0 0 0 0 0 0 0 0 0 0 0 0 0 0 0 0 0 0 0 0 0 0 0 0 0 0
0 0 0 0 0 0 0 0 0 0 0 0 0 0 0 0 0 0 0 0 0 0 0 0 0 0 0 0 0 0 0 0 0 0 0 0 0 0 0 0 0 0 0
0 0 0 0 0 0 0 0 0 0 0 0 0 0 0 0 0 0 0 0 0 0 0 0 0 0 0 0 0 0 0 0 0 0 0 0 0 0 0 0 0 0 0
0 0 0 0 0 0 0 0 0 0 0 0 0 0 0 0 0 0 0 0 0 0 0 0 0 0 0 0 0 0 0 0 0 0 0 0 0 0 0 0 0 0 0
0 0 0 0 0 0 0 0 0 0 0 0 0 0 0 0 0 0 0 0 0 0 0 0 0 0 0 0 0 0 0 0 0 0 0 0 0 0 0 0 0 0 0
0 0 0 0 0 0 0 0 0 0 0 0 0 0 0 0 0 0 0 0 0 0 0 0 0 0 0 0 0 0 0 0 0 0 0 0 0 0 0 0 0 0 0
0 0 0 0 0 0 0 0 0 0 0 0 0 0 0 0 0 0 0 0 0 0 0 0 0 0 0 0 0 0 0 0 0 0 0 0 0 0 0 0 0 0 0
0 0 0 0 0 0 0 0 0 0 0 0 0 0 0 0 0 0 0 0 0 0 0 0 0 0 0 0 0 0 0 0 0 0 0 0 0 0 0 0 0 0 0
0 0 0 0 0 0 0 0 0 0 0 0 0 0 0 0 0 0 0 0 0 0 0 0 0 0 0 0 0 0 0 0 0 0 0 0 0 0 0 0 0 0 0
0 0 0 0 0 0 0 0 0 0 0 0 0 0 0 0 0 0 0 0 0 0 0 0 0 0 0 0 0 0 0 0 0 0 0 0 0 0 0 0 0 0 0
0 0 0 0 0 0 0 0 0 0 0 0 0 0 0 0 0 0 0 0 0 0 0 0 0 0 0 0 0 0 0 0 0 0 0 0 0 0 0 0 0 0 0
0 0 0 0 0 0 0 0 0 0 0 0 0 0 0 0 0 0 0 0 0 0 0 0 0 0 0 0 0 0 0 0 0 0 0 0 0 0 0 0 0 0 0
0 0 0 0 0 0 0 0 0 0 0 0 0 0 0 0 0 0 0 0 0 0 0 0 0 0 0 0 0 0 0 0 0 0 0 0 0 0 0 0 0 0 0
0 0 0 0 0 0 0 0 0 0 0 0 0 0 0 0 0 0 0 0 0 0 0 0 0 0 0 0 0 0 0 0 0 0 0 0 0 0 0 0 0 0 0
0 0 0 0 0 0 0 0 0 0 0 0 0 0 0 0 0 0 0 0 0 0 0 0 0 0 0 0 0 0 0 0 0 0 0 0 0 0 0 0 0 0 0
Height
5726 5725 5724 5723 5721 5719 5717 5715 5713 5710 5707 5704 5701 5698 5694 5690 5685 5681 5676 5671 5666 5661 5656 5651 5646 5640 5635 5629 5624 5618 5612 5606 5602 5599 5590 5582 5573 5565 5557 5548 5540 5532 5524
5718 5717 5716 5714 5712 5711 5709 5706 5704 5701 5698 5695 5691 5688 5684 5679 5675 5670 5665 5660 5655 5650 5645 5639 5633 5628 5622 5616 5610 5604 5597 5589 5583 5579 5573 5563 5553 5543 5535 5526 5517 5508 5499
5710 5709 5707 5706 5704 5702 5700 5697 5695 5692 5689 5685 5681 5677 5673 5669 5664 5659 5654 5649 5644 5638 5633 5627 5621 5615 5609 5602 5595 5588 5580 5573 5564 5557 5552 5542 5532 5521 5512 5504 5495 5485 5475
5702 5701 5699 5697 5695 5693 5691 5688 5686 5682 5679 5675 5671 5667 5663 5658 5653 5648 5643 5638 5632 5627 5620 5614 5608 5601 5594 5587 5580 5572 5563 5555 5546 5537 5530 5522 5512 5500 5489 5480 5473 5465 5455
5694 5692 5690 5689 5686 5684 5682 5679 5676 5672 5669 5665 5661 5656 5652 5647 5642 5636 5631 5626 5620 5614 5608 5601 5594 5587 5579 5571 5563 5554 5545 5536 5527 5517 5509 5500 5491 5479 5469 5459 5451 5445 5437
5685 5684 5682 5680 5677 5675 5672 5669 5666 5662 5658 5654 5650 5645 5641 5636 5630 5625 5619 5614 5608 5601 5595 5587 5580 5572 5563 5555 5546 5537 5527 5516 5506 5497 5488 5479 5470 5459 5449 5440 5431 5424 5420
5677 5675 5673 5671 5668 5666 5663 5659 5656 5652 5648 5644 5639 5634 5630 5624 5618 5612 5607 5601 5595 5588 5580 5573 5565 5556 5547 5538 5529 5520 5509 5497 5486 5476 5468 5458 5449 5440 5430 5423 5414 5406 5400
5668 5666 5664 5662 5659 5656 5653 5649 5646 5642 5638 5633 5628 5623 5618 5612 5606 5600 5594 5587 5581 5573 5565 5557 5548 5539 5529 5520 5511 5503 5492 5481 5469 5458 5448 5440 5431 5422 5412 5404 5396 5390 5385
5660 5658 5655 5652 5649 5646 5643 5639 5635 5631 5627 5622 5617 5612 5606 5600 5593 5586 5579 5573 5566 5558 5550 5540 5530 5522 5513 5502 5493 5484 5475 5464 5452 5441 5431 5422 5414 5405 5396 5388 5382 5376 5371
5651 5648 5646 5643 5640 5637 5633 5629 5625 5621 5616 5611 5606 5600 5594 5587 5580 5572 5565 5558 5551 5543 5534 5524 5513 5503 5494 5483 5473 5464 5455 5446 5436 5426 5417 5408 5399 5391 5383 5375 5369 5363 5359
5642 5639 5637 5634 5630 5627 5623 5619 5614 5610 5605 5600 5594 5588 5581 5574 5566 5558 5549 5541 5532 5525 5516 5507 5496 5485 5475 5465 5454 5444 5435 5426 5418 5410 5402 5394 5386 5379 5372 5365 5359 5354 5349
5633 5630 5627 5624 5620 5616 5613 5608 5603 5599 5593 5588 5582 5575 5567 5559 5551 5542 5533 5524 5514 5506 5498 5489 5479 5468 5457 5447 5436 5426 5417 5408 5400 5393 5386 5379 5373 5367 5361 5356 5350 5346 5341
5624 5621 5617 5614 5610 5606 5602 5597 5592 5587 5581 5575 5569 5562 5554 5546 5536 5527 5518 5508 5498 5488 5480 5470 5461 5450 5440 5430 5420 5410 5400 5392 5384 5378 5371 5366 5360 5355 5351 5346 5342 5338 5334
5615 5611 5608 5604 5600 5596 5591 5586 5581 5575 5569 5562 5555 5548 5540 5531 5521 5511 5502 5492 5482 5472 5462 5453 5443 5433 5423 5413 5404 5395 5386 5377 5370 5364 5359 5354 5349 5345 5341 5338 5334 5331 5328
5605 5602 5598 5594 5590 5585 5580 5575 5569 5563 5555 5548 5541 5533 5524 5516 5506 5495 5484 5474 5464 5454 5444 5436 5425 5415 5406 5397 5389 5380 5372 5365 5358 5353 5348 5344 5340 5336 5333 5330 5327 5324 5321
5595 5592 5588 5584 5579 5575 5569 5564 5556 5550 5542 5533 5525 5517 5508 5499 5488 5478 5467 5457 5446 5435 5425 5416 5407 5398 5389 5381 5373 5366 5359 5353 5347 5343 5339 5335 5332 5328 5325 5322 5320 5318 5315
5585 5582 5578 5573 5569 5563 5558 5552 5545 5538 5528 5519 5510 5501 5492 5482 5472 5461 5450 5440 5429 5417 5408 5399 5390 5381 5373 5365 5358 5353 5347 5342 5338 5334 5330 5327 5324 5321 5318 5316 5314 5312 5310
5575 5571 5567 5562 5557 5551 5545 5538 5531 5524 5517 5507 5497 5486 5476 5466 5455 5444 5433 5423 5413 5402 5392 5383 5375 5366 5359 5352 5346 5341 5336 5332 5328 5325 5322 5319 5317 5315 5312 5310 5309 5307 5306
5565 5560 5556 5551 5545 5539 5532 5525 5517 5509 5501 5492 5483 5472 5460 5450 5439 5427 5416 5406 5396 5387 5378 5369 5361 5353 5346 5340 5334 5330 5326 5323 5320 5317 5314 5312 5310 5308 5307 5305 5304 5303 5301
5554 5549 5544 5539 5533 5526 5519 5511 5503 5494 5485 5476 5466 5455 5445 5434 5423 5412 5401 5390 5381 5372 5364 5356 5348 5341 5335 5329 5324 5320 5317 5314 5312 5309 5308 5306 5304 5303 5301 5300 5299 5298 5298
5543 5538 5532 5526 5520 5513 5505 5496 5488 5479 5469 5460 5449 5438 5427 5416 5406 5396 5386 5376 5367 5358 5351 5344 5337 5331 5325 5320 5316 5312 5309 5307 5305 5303 5301 5300 5299 5298 5296 5296 5295 5294 5294
5531 5526 5520 5514 5507 5499 5490 5482 5472 5463 5453 5443 5433 5422 5410 5399 5389 5380 5370 5362 5353 5346 5339 5333 5327 5321 5316 5311 5308 5305 5302 5300 5298 5297 5296 5295 5294 5293 5292 5291 5291 5290 5290
5520 5514 5507 5500 5493 5485 5476 5467 5457 5447 5437 5427 5417 5406 5395 5384 5374 5365 5357 5349 5342 5335 5328 5322 5317 5312 5308 5304 5301 5298 5296 5294 5293 5291 5290 5289 5289 5288 5287 5287 5287 5286 5286
5507 5501 5494 5487 5479 5470 5461 5452 5442 5432 5422 5412 5401 5390 5380 5370 5361 5352 5345 5338 5331 5325 5319 5313 5308 5304 5300 5297 5294 5292 5290 5288 5287 5286 5285 5284 5284 5283 5283 5282 5282 5282 5282
5494 5488 5481 5473 5465 5456 5447 5437 5427 5417 5407 5396 5386 5376 5367 5357 5349 5341 5334 5328 5322 5316 5310 5305 5301 5297 5294 5291 5288 5286 5285 5283 5282 5281 5280 5279 5279 5278 5278 5278 5277 5277 5277
5481 5475 5467 5459 5450 5441 5432 5422 5412 5403 5393 5382 5373 5363 5354 5346 5338 5331 5325 5319 5313 5308 5303 5298 5295 5291 5288 5285 5283 5281 5279 5278 5276 5275 5275 5274 5274 5273 5273 5273 5272 5273 5273
Wind_Speed
32 33 33 33 34 35 36 36 37 38 40 40 42 44 45 46 47 48 48 49 49 49 49 50 50 51 51 52 54 55 57 59 60 61 64 67 69 71 73 75 76 77 78
32 32 33 33 34 35 36 37 38 39 40 41 43 45 46 47 48 48 49 49 49 50 50 51 51 52 53 55 57 59 61 63 65 66 68 71 73 74 76 77 78 79 79
32 33 33 34 35 36 36 37 39 40 41 43 45 46 47 48 48 49 49 49 50 51 51 52 53 55 56 58 60 63 65 67 70 72 72 73 74 76 77 77 77 76 74
32 32 33 34 35 36 37 38 40 41 42 44 45 47 47 48 48 49 50 51 51 52 53 54 56 58 59 62 64 66 69 70 73 74 75 74 75 76 77 76 73 70 68
32 32 33 34 35 36 37 39 41 42 43 44 46 46 47 48 49 50 51 52 52 54 55 57 59 61 63 65 68 69 71 73 75 76 76 75 75 75 74 71 68 66 64
32 33 34 34 35 37 38 40 41 42 44 45 45 46 47 49 50 51 52 53 55 56 58 60 62 64 66 68 69 71 74 76 77 77 76 75 74 71 69 67 66 64 61
32 32 33 34 36 37 38 40 41 43 43 44 45 47 48 50 52 53 54 56 57 59 61 63 65 67 68 70 71 73 75 77 77 77 76 73 70 67 67 65 63 60 57
32 33 34 35 37 38 39 41 42 42 43 45 46 48 49 51 53 54 56 58 60 62 64 66 67 69 70 72 73 74 75 75 75 75 73 69 67 65 64 62 59 56 52
33 34 35 36 37 38 40 41 42 43 44 46 48 49 51 53 55 57 59 61 63 65 67 68 69 71 72 74 75 75 74 73 73 71 69 66 64 62 60 58 54 51 46
33 34 35 36 38 39 40 41 42 44 45 47 49 51 52 55 57 59 62 64 66 67 68 69 71 73 73 74 75 75 74 72 70 67 64 62 59 56 54 51 48 44 40
34 35 36 37 39 40 40 42 43 45 46 48 50 52 54 57 59 62 64 67 68 68 69 70 71 73 73 74 74 74 72 70 66 63 59 57 54 51 48 45 42 39 36
34 35 37 38 39 40 41 43 44 46 48 49 51 54 56 59 61 64 66 67 68 69 70 70 71 72 72 73 72 71 69 66 63 59 56 52 49 45 42 40 37 35 33
35 36 37 38 39 41 42 44 45 47 49 51 54 56 58 60 63 66 67 68 69 70 70 70 71 71 71 70 68 67 65 62 59 55 51 47 44 40 37 35 33 32 30
35 36 37 39 40 42 43 45 46 49 52 54 56 58 60 63 65 67 68 69 70 70 71 71 72 71 70 68 65 63 60 57 53 49 45 41 38 36 34 32 31 29 27
36 37 38 40 41 43 44 46 49 51 54 56 59 61 63 65 67 69 70 70 71 71 72 72 71 69 67 65 62 58 54 50 46 43 39 36 34 33 31 30 28 26 24
37 38 40 41 43 44 46 49 51 54 57 59 61 63 65 68 69 70 71 71 71 72 72 70 68 66 64 61 57 52 48 44 40 37 35 33 31 29 28 26 24 23 21
38 40 41 43 45 47 49 51 54 56 58 60 63 65 68 70 70 71 71 71 70 70 69 67 65 63 60 55 51 46 43 39 36 34 32 30 28 26 24 23 22 20 18
40 41 43 45 47 49 52 54 56 59 60 62 65 67 69 70 71 71 70 69 68 67 65 63 61 58 54 50 46 42 39 36 33 31 29 27 25 23 22 20 19 17 16
41 43 45 47 49 51 54 57 59 61 63 65 66 68 70 71 70 70 69 68 66 63 61 59 56 52 49 46 42 38 35 32 29 28 26 24 22 21 20 19 17 15 14
43 44 46 49 51 54 57 60 62 63 65 67 68 69 70 70 69 68 67 65 62 59 56 53 50 47 44 41 37 34 30 28 26 25 23 21 20 19 18 16 15 14 13
44 46 49 51 54 57 60 62 63 65 67 68 69 70 71 70 67 65 63 61 58 55 51 48 45 43 40 36 33 29 26 25 24 22 21 19 18 17 16 14 14 13 13
46 48 51 54 57 60 62 63 65 66 68 68 69 70 69 67 65 62 59 56 52 49 46 44 42 39 35 32 29 26 24 23 21 20 19 18 17 15 15 14 14 13 12
48 51 53 56 59 61 63 65 66 67 67 68 69 68 66 64 61 57 53 50 47 44 42 40 37 34 31 29 26 24 22 21 20 18 17 16 15 15 14 14 14 13 12
50 53 55 58 61 63 64 65 66 66 67 67 66 65 62 59 55 51 47 45 43 41 39 36 33 30 28 26 24 21 20 19 18 17 16 15 15 14 14 14 14 13 13
52 55 57 60 62 63 65 65 65 65 66 65 64 61 58 54 50 46 44 42 39 37 35 32 30 27 25 23 22 20 19 18 17 16 15 15 15 15 14 14 14 13 13
54 56 58 61 63 64 65 64 64 65 65 63 60 57 53 49 46 43 40 38 36 34 31 29 27 26 24 23 21 20 18 17 16 15 15 15 15 14 14 14 13 13 13
Wind_Direction
279 280 280 281 282 283 285 286 287 289 290 292 293 295 296 298 299 301 302 302 303 303 304 304 304 303 303 303 303 303 303 303 303 303 302 302 301 300 299 298 297 296 295
279 280 281 282 283 284 286 288 289 290 291 292 293 295 296 298 299 300 301 302 303 303 304 303 303 304 304 304 304 305 305 304 304 304 304 303 302 301 300 299 299 298 296
281 281 282 283 284 285 287 289 290 291 292 293 294 295 297 298 299 301 302 303 303 304 304 304 304 304 304 305 305 306 306 306 306 306 306 305 304 303 302 301 300 299 298
282 283 284 284 285 286 288 290 291 292 293 294 295 296 298 299 300 301 302 303 303 304 304 304 304 304 305 305 306 306 306 306 307 307 306 306 305 304 303 302 300 300 299
283 284 285 285 286 288 289 290 292 293 294 295 296 297 298 299 300 301 302 303 303 304 304 304 304 305 305 306 307 307 307 308 308 307 307 306 306 305 303 302 302 301 300
285 286 287 287 288 290 291 292 293 294 295 296 297 298 299 300 301 301 302 303 303 304 304 304 305 305 306 307 307 308 308 309 308 308 307 307 306 305 304 304 303 303 301
286 287 288 289 290 291 293 294 295 295 296 297 298 299 300 301 301 302 302 303 304 304 304 305 305 306 306 307 308 308 309 309 308 308 308 308 307 305 305 305 304 304 303
287 288 290 291 292 293 294 295 296 297 297 298 299 300 301 301 302 302 303 304 304 305 305 306 306 307 307 307 308 309 309 309 308 308 308 308 307 306 306 306 306 305 305
289 290 291 292 293 294 296 297 297 298 299 299 300 301 301 302 303 303 304 305 305 306 306 306 307 307 308 308 308 309 310 309 308 308 308 307 307 307 307 307 307 307 307
291 292 292 293 294 296 297 298 298 299 300 300 301 302 302 303 304 304 305 305 306 306 307 307 308 308 308 309 309 310 309 309 308 308 307 307 307 307 307 307 307 308 307
292 293 294 295 296 297 298 299 299 300 301 302 302 303 304 305 305 306 306 307 307 307 308 308 308 308 309 309 309 310 309 309 309 308 307 307 307 306 306 306 307 307 307
293 294 295 296 297 298 299 300 301 302 302 303 304 305 305 306 306 307 307 308 308 309 309 309 309 309 309 310 310 310 310 309 309 308 307 307 306 306 305 306 306 306 306
295 296 297 298 299 300 301 302 302 303 304 304 305 306 306 307 307 308 308 309 309 309 310 310 310 310 310 310 310 310 310 309 309 308 307 306 305 305 304 305 305 305 305
296 297 298 299 301 302 303 304 304 305 305 306 306 307 308 308 309 309 309 309 309 309 310 310 311 310 310 310 310 310 309 309 308 307 307 306 305 304 304 304 304 305 305
297 298 299 301 302 303 304 305 306 307 307 308 308 309 309 310 310 310 310 310 310 310 310 311 311 311 310 310 310 310 309 308 307 307 306 305 304 304 304 303 303 303 303
297 299 300 301 303 304 305 306 308 308 309 309 310 310 311 311 311 311 311 311 311 311 311 312 311 311 311 311 310 310 309 308 307 306 305 305 304 304 303 303 302 303 302
298 300 301 302 304 305 306 307 309 309 310 311 311 311 312 312 312 312 312 311 311 311 311 312 311 311 312 312 311 309 308 307 306 305 305 304 304 304 303 302 302 302 301
299 301 302 304 305 306 307 309 310 310 311 311 312 312 312 313 313 313 312 312 312 311 311 311 312 312 312 311 310 309 307 306 305 305 304 303 304 304 303 302 302 300 299
300 302 304 305 307 308 309 310 311 312 312 312 312 313 313 314 313 313 313 312 312 312 311 312 312 312 312 311 310 308 307 305 304 304 303 303 304 304 303 301 300 298 297
301 303 305 307 308 309 311 311 312 312 313 313 314 314 314 314 314 313 313 313 312 312 312 313 313 313 313 312 311 309 307 305 304 304 303 302 303 303 302 300 298 296 296
303 305 307 308 310 311 312 312 313 313 314 314 315 315 315 315 314 314 313 313 313 312 313 313 313 313 313 312 311 309 306 305 305 304 302 301 301 302 299 296 296 295 295
304 306 308 310 311 312 313 313 314 314 315 316 316 316 316 315 315 314 314 314 313 313 314 314 314 313 313 312 311 309 306 305 305 304 303 300 299 298 296 293 293 293 292
306 308 309 311 313 313 314 314 315 315 316 317 317 317 316 316 315 315 315 315 315 315 315 315 315 314 313 312 310 307 306 305 304 303 301 298 296 295 292 291 291 291 291
307 309 311 312 314 314 315 315 316 317 317 318 318 318 317 317 316 316 316 316 316 316 316 316 315 314 313 311 309 307 305 305 304 302 299 296 294 293 290 289 289 288 288
308 310 312 313 315 315 316 316 317 318 318 319 318 318 318 318 317 316 316 317 317 317 316 316 315 314 313 311 310 308 307 305 303 300 297 295 294 292 289 288 287 285 284
310 312 313 315 315 316 317 317 317 318 319 319 319 319 318 318 317 317 316 317 318 318 317 316 315 313 313 312 310 308 306 305 303 301 298 296 294 291 287 286 285 282 281